TimeEST,TemperatureF,Dew PointF,Humidity,Sea Level PressureIn,VisibilityMPH,Wind Direction,Wind SpeedMPH,Gust SpeedMPH,PrecipitationIn,Events,Conditions,WindDirDegrees,DateUTC
12:55 AM,54.5,53.4,96,30.07,9.0,Calm,Calm,-,N/A,,Clear,0,2012-12-09 05:55:00
1:55 AM,52.7,52.0,97,30.08,9.0,Calm,Calm,-,N/A,,Overcast,0,2012-12-09 06:55:00
2:55 AM,53.2,52.5,97,30.08,7.0,Calm,Calm,-,N/A,,Overcast,0,2012-12-09 07:55:00
3:55 AM,54.5,53.6,97,30.09,10.0,Calm,Calm,-,N/A,,Mostly Cloudy,0,2012-12-09 08:55:00
4:55 AM,51.3,50.4,97,30.09,8.0,Calm,Calm,-,N/A,,Clear,0,2012-12-09 09:55:00
5:55 AM,52.9,52.0,97,30.10,7.0,SSE,3.5,-,N/A,,Mostly Cloudy,160,2012-12-09 10:55:00
6:55 AM,53.4,52.5,97,30.12,6.0,Calm,Calm,-,N/A,,Mostly Cloudy,0,2012-12-09 11:55:00
7:13 AM,51.8,51.8,100,30.12,2.5,Calm,Calm,-,N/A,,Mostly Cloudy,0,2012-12-09 12:13:00
7:19 AM,53.6,51.8,94,30.12,3.0,Calm,Calm,-,N/A,,Mostly Cloudy,0,2012-12-09 12:19:00
7:33 AM,51.8,51.8,100,30.13,1.2,Calm,Calm,-,N/A,,Scattered Clouds,0,2012-12-09 12:33:00
7:44 AM,51.8,51.8,100,30.13,3.0,Calm,Calm,-,N/A,,Mostly Cloudy,0,2012-12-09 12:44:00
7:55 AM,52.5,51.6,97,30.13,5.0,Calm,Calm,-,N/A,,Mostly Cloudy,0,2012-12-09 12:55:00
8:55 AM,56.5,55.4,96,30.14,9.0,Variable,3.5,-,N/A,,Mostly Cloudy,0,2012-12-09 13:55:00
9:23 AM,57.2,55.4,94,30.14,10.0,NNE,32.2,-,N/A,,Squalls,30,2012-12-09 14:23:00
9:55 AM,60.6,56.3,86,30.14,10.0,Calm,Calm,-,N/A,,Mostly Cloudy,0,2012-12-09 14:55:00
10:55 AM,67.1,56.5,69,30.14,10.0,Calm,Calm,-,N/A,,Overcast,0,2012-12-09 15:55:00
11:34 AM,71.6,59.0,64,30.12,0.2,SW,11.5,-,N/A,,Haze,230,2012-12-09 16:34:00
11:42 AM,71.6,59.0,64,30.11,4.0,WSW,9.2,-,N/A,,Haze,250,2012-12-09 16:42:00
11:55 AM,72.1,58.8,63,30.10,10.0,WSW,4.6,-,N/A,,Mostly Cloudy,240,2012-12-09 16:55:00
12:55 PM,75.0,55.4,50,30.08,10.0,SSW,8.1,-,N/A,,Scattered Clouds,200,2012-12-09 17:55:00
1:55 PM,74.3,57.0,55,30.06,10.0,SW,9.2,-,N/A,,Mostly Cloudy,230,2012-12-09 18:55:00
2:55 PM,73.6,58.3,59,30.06,10.0,SSW,8.1,-,N/A,,Overcast,210,2012-12-09 19:55:00
3:55 PM,73.4,59.4,61,30.06,10.0,South,9.2,-,N/A,,Partly Cloudy,180,2012-12-09 20:55:00
4:55 PM,71.6,59.9,66,30.06,10.0,South,4.6,-,N/A,,Clear,170,2012-12-09 21:55:00
5:55 PM,69.3,60.8,74,30.06,10.0,SSE,5.8,-,N/A,,Partly Cloudy,160,2012-12-09 22:55:00
6:55 PM,67.1,61.2,81,30.05,10.0,SSE,5.8,-,N/A,,Clear,150,2012-12-09 23:55:00
7:55 PM,65.5,62.1,89,30.05,10.0,SE,9.2,-,N/A,,Scattered Clouds,140,2012-12-10 00:55:00
8:55 PM,63.7,60.8,90,30.05,10.0,SE,5.8,-,N/A,,Clear,140,2012-12-10 01:55:00
9:55 PM,63.1,59.9,89,30.05,10.0,SSE,3.5,-,N/A,,Mostly Cloudy,150,2012-12-10 02:55:00
10:55 PM,62.8,59.5,89,30.03,10.0,SSE,4.6,-,N/A,,Scattered Clouds,150,2012-12-10 03:55:00
11:55 PM,62.6,59.5,90,30.00,10.0,SSE,6.9,-,N/A,,Scattered Clouds,160,2012-12-10 04:55:00